STARLINK-34496 (64476 NORAD) Tracking and Keplerian Element Data

This shows tracking and keplerian element data for the satellite.

Feedback or suggestion? Click here.




ElementValue
Catalog64476
NameSTARLINK-34496
Epoch Orbit2900
Epoch Day354.1069611
Epoch Year2025
RAAN126.4761
Inclination53.1582
Eccentricity9.32E-05
Argument of Perigee88.8103
Mean Anonmoly271.3004
Mean Motion15.30216256
Decay Rate0.00020801
L11 64476U 25133E 25354.10696110 .00020801 00000+0 71209-3 0 9996
L22 64476 53.1582 126.4761 0000932 88.8103 271.3004 15.30216256 29001



Live tracking and technical data element details for STARLINK-34496 (NORAD 64476). STARLINK-34496 can be tracked NOW for your location showing map with azimuth and elevation plus other details from your city location.







IsCatalogInMostPopularTable: catalog: 64476, numindb: 9
Update: records affected: 1



GetName: 64476 STARLINK-34496

Hit Count: updated at: Tue, 21 Apr 2026 19:32:42 GMT